Weather History for Fort Myers, FL

Change the Weather History Date:

Wednesday, June 12, 2013

  Actual Average Record
Temperature  
Mean Temperature 82 °F 82 °F  
Max Temperature 92 °F 92 °F 100 °F (1981)
Min Temperature 71 °F 73 °F 61 °F (1960)
Degree Days  
Heating Degree Days 0 0  
Month to date heating degree days 0 0  
Since 1 June heating degree days 0 0  
Since 1 July heating degree days 201 287  
Cooling Degree Days 17 17  
Month to date cooling degree days 190 204  
Year to date cooling degree days 1328 1270  
Since 1 June cooling degree days 190 204  
Growing Degree Days 31 (Base 50)    
Moisture  
Dew Point 72 °F    
Average Humidity 84    
Maximum Humidity 94    
Minimum Humidity 49    
Precipitation  
Precipitation 0.93 in 0.35 in 2.14 in (2008)
Month to date precipitation 4.52 3.38  
Year to date precipitation 14.68 15.18  
Sea Level Pressure  
Sea Level Pressure 30.06 in    
Wind  
Wind Speed 3 mph (ESE)    
Max Wind Speed 24 mph    
Max Gust Speed 30 mph    
Visibility 8 miles    
Events Fog , Rain    
T = Trace of Precipitation, MM = Missing Value Source: NWS Daily Summary

Daily Weather History Graph

Daily Weather History Graph

Search for Another Location

Airport:

Trip Planner

Search our weather history database for the weather conditions in past years. The results will help you decide how hot, cold, wet, or windy it might be!

Date:

Astronomy

Jun. 12, 2013 Rise Set
Actual Time 6:33 AM EDT 8:21 PM EDT
Civil Twilight 6:07 AM EDT 8:47 PM EDT
Nautical Twilight 5:35 AM EDT 9:18 PM EDT
Astronomical Twilight 5:02 AM EDT 9:52 PM EDT
Moon 9:56 AM EDT (6/12) 11:14 PM EDT (6/12)
Length of Visible Light 14h 39m
Length of Day
13h 47m
Waxing Crescent, 14% of the Moon is Illuminated
Jun 12
Waxing Crescent
Jun 16
First Quarter
Jun 23
Full
Jun 30
Last Quarter
Jul 8
New

Hourly Weather History & Observations

Time (EDT) Temp. Heat Index Dew Point Humidity Pressure Visibility Wind Dir Wind Speed Gust Speed Precip Events Conditions
12:53 AM 75.9 °F - 73.0 °F 91% 30.07 in 10.0 mi NNE 3.5 mph - N/A   Clear
1:53 AM 75.0 °F - 73.0 °F 94% 30.06 in 10.0 mi Calm Calm - N/A   Clear
2:53 AM 73.9 °F - 72.0 °F 93% 30.05 in 10.0 mi ENE 3.5 mph - N/A   Clear
3:53 AM 73.9 °F - 72.0 °F 93% 30.04 in 10.0 mi Calm Calm - N/A   Clear
4:53 AM 73.9 °F - 72.0 °F 93% 30.04 in 10.0 mi Calm Calm - N/A   Clear
5:53 AM 73.9 °F - 72.0 °F 93% 30.05 in 10.0 mi Calm Calm - N/A   Clear
6:53 AM 73.9 °F - 72.0 °F 93% 30.07 in 10.0 mi Calm Calm - N/A   Clear
7:53 AM 75.9 °F - 73.9 °F 94% 30.07 in 10.0 mi East 3.5 mph - N/A   Clear
8:53 AM 78.1 °F - 75.0 °F 90% 30.08 in 10.0 mi ESE 3.5 mph - N/A   Clear
9:53 AM 81.0 °F 87.3 °F 75.9 °F 85% 30.08 in 10.0 mi Calm Calm - N/A   Clear
10:53 AM 84.0 °F 91.9 °F 75.0 °F 74% 30.08 in 10.0 mi Calm Calm - N/A   Clear
11:53 AM 88.0 °F 97.5 °F 75.0 °F 65% 30.08 in 10.0 mi NW 4.6 mph - N/A   Scattered Clouds
12:12 PM 87.8 °F 97.6 °F 75.2 °F 66% 30.07 in 10.0 mi Calm Calm - N/A   Mostly Cloudy
12:23 PM 87.8 °F 93.8 °F 71.6 °F 58% 30.06 in 10.0 mi ENE 6.9 mph - N/A   Scattered Clouds
12:53 PM 91.0 °F 99.3 °F 73.0 °F 55% 30.06 in 10.0 mi NNE 6.9 mph - N/A   Partly Cloudy
1:53 PM 91.9 °F 97.4 °F 70.0 °F 48% 30.04 in 10.0 mi North 4.6 mph - N/A   Partly Cloudy
2:53 PM 88.0 °F 96.5 °F 73.9 °F 63% 30.03 in 10.0 mi WSW 8.1 mph - N/A   Clear
3:53 PM 84.9 °F 88.2 °F 68.0 °F 57% 30.03 in 10.0 mi South 9.2 mph - N/A   Overcast
4:39 PM 73.4 °F - 71.6 °F 94% 30.10 in 4.0 mi SE 17.3 mph 25.3 mph 0.01 in Rain Light Rain
4:42 PM 73.4 °F - 71.6 °F 94% 30.10 in 1.5 mi SE 20.7 mph 29.9 mph 0.02 in Rain Rain
4:51 PM 71.6 °F - 71.6 °F 100% 30.08 in 0.2 mi SSE 21.9 mph 28.8 mph 0.36 in Fog , Rain Heavy Rain
4:53 PM 72.0 °F - 71.1 °F 97% 30.09 in 0.2 mi SSE 17.3 mph 28.8 mph 0.50 in Fog , Rain Heavy Rain
5:09 PM 71.6 °F - 69.8 °F 94% 30.08 in 1.8 mi South 9.2 mph - 0.40 in Rain Rain
5:13 PM 71.6 °F - 69.8 °F 94% 30.08 in 3.0 mi South 8.1 mph - 0.42 in Rain Light Rain
5:53 PM 73.0 °F - 71.1 °F 93% 30.04 in 10.0 mi West 6.9 mph - 0.43 in   Partly Cloudy
6:53 PM 75.0 °F - 72.0 °F 90% 30.05 in 10.0 mi NNW 4.6 mph - N/A   Clear
7:53 PM 75.0 °F - 71.1 °F 87% 30.01 in 10.0 mi Calm Calm - N/A   Clear
8:53 PM 73.9 °F - 71.1 °F 91% 30.05 in 10.0 mi East 5.8 mph - N/A   Clear
9:53 PM 73.9 °F - 71.1 °F 91% 30.05 in 10.0 mi Calm Calm - N/A   Clear
10:53 PM 73.0 °F - 71.1 °F 93% 30.07 in 10.0 mi Calm Calm - N/A   Clear
11:53 PM 73.0 °F - 71.1 °F 93% 30.07 in 10.0 mi Calm Calm - N/A   Clear